Time,TemperatureF,DewpointF,PressureIn,WindDirection,WindDirectionDegrees,WindSpeedMPH,WindSpeedGustMPH,Humidity,HourlyPrecipIn,Conditions,Clouds,dailyrainin,SoftwareType,DateUTC
2013-06-25 00:00:00,69.0,59.0,-100.00,SSW,210,7.0,7.0,69,-99.99,,,-99.99,,2013-06-25 04:00:00,
2013-06-25 00:52:00,69.0,59.0,-100.00,SSW,210,7.0,7.0,69,-99.99,,,-99.99,,2013-06-25 04:52:00,
2013-06-25 01:00:00,65.0,57.0,-100.00,North,350,4.0,4.0,76,-99.99,,,-99.99,,2013-06-25 05:00:00,
2013-06-25 01:52:00,65.0,57.0,-100.00,North,350,4.0,4.0,76,-99.99,,,-99.99,,2013-06-25 05:52:00,
2013-06-25 02:50:00,63.0,58.0,-100.00,WNW,290,4.0,7.0,83,-99.99,,,-99.99,,2013-06-25 06:50:00,
2013-06-25 03:50:00,60.0,57.0,-100.00,NW,320,2.0,4.0,91,-99.99,,,-99.99,,2013-06-25 07:50:00,
2013-06-25 04:43:00,60.0,57.0,-100.00,NW,320,2.0,4.0,91,-99.99,,,-99.99,,2013-06-25 08:43:00,
2013-06-25 04:50:00,59.0,57.0,-100.00,ENE,70,4.0,4.0,95,-99.99,,,-99.99,,2013-06-25 08:50:00,
2013-06-25 07:00:00,59.0,58.0,-100.00,North,0,0.0,2.0,94,-99.99,,,-99.99,,2013-06-25 11:00:00,
2013-06-25 07:52:00,59.0,58.0,-100.00,North,0,0.0,2.0,94,-99.99,,,-99.99,,2013-06-25 11:52:00,
2013-06-25 08:00:00,59.0,57.0,-100.00,ENE,60,2.0,2.0,93,-99.99,,,-99.99,,2013-06-25 12:00:00,
2013-06-25 08:55:00,59.0,57.0,-100.00,ENE,60,2.0,2.0,93,-99.99,,,-99.99,,2013-06-25 12:55:00,
2013-06-25 10:00:00,61.0,60.0,-100.00,East,100,2.0,2.0,96,-99.99,,,-99.99,,2013-06-25 14:00:00,
2013-06-25 10:53:00,61.0,60.0,-100.00,East,100,2.0,2.0,96,-99.99,,,-99.99,,2013-06-25 14:53:00,
2013-06-25 12:00:00,65.0,62.0,-100.00,ENE,70,2.0,2.0,90,-99.99,,,-99.99,,2013-06-25 16:00:00,
2013-06-25 12:50:00,63.0,62.0,-100.00,NE,50,4.0,4.0,95,-99.99,,,-99.99,,2013-06-25 16:50:00,
2013-06-25 12:52:00,65.0,62.0,-100.00,ENE,70,2.0,2.0,90,-99.99,,,-99.99,,2013-06-25 16:52:00,
2013-06-25 15:00:00,60.0,59.0,-100.00,ENE,60,7.0,7.0,97,-99.99,,,-99.99,,2013-06-25 19:00:00,
2013-06-25 16:00:00,60.0,59.0,-100.00,NE,50,7.0,9.0,94,-99.99,,,-99.99,,2013-06-25 20:00:00,
2013-06-25 16:52:00,60.0,59.0,-100.00,NE,50,7.0,9.0,94,-99.99,,,-99.99,,2013-06-25 20:52:00,
2013-06-25 19:00:00,61.0,61.0,-100.00,ENE,60,9.0,9.0,97,-99.99,,,-99.99,,2013-06-25 23:00:00,
2013-06-25 22:00:00,60.0,58.0,-100.00,East,90,2.0,2.0,92,-99.99,,,-99.99,,2013-06-26 02:00:00,
2013-06-25 22:53:00,60.0,58.0,-100.00,East,90,2.0,2.0,92,-99.99,,,-99.99,,2013-06-26 02:53:00,
2013-06-25 23:00:00,59.0,57.0,-100.00,ENE,60,4.0,4.0,91,-99.99,,,-99.99,,2013-06-26 03:00:00,
2013-06-25 23:52:00,59.0,57.0,-100.00,ENE,60,4.0,4.0,91,-99.99,,,-99.99,,2013-06-26 03:52:00,